Watertown, WI

7:18 PM CST on February 27, 2017 (GMT -0600)
Watertown Municipal

Weather History for KRYV - October, 2013

Change the Weather History Date:

Wednesday, October 2, 2013

  Actual Average Record
Temperature  
Mean Temperature 59 °F -  
Max Temperature 75 °F 67 °F 88 °F (1971)
Min Temperature 43 °F 44 °F 21 °F (2003)
Degree Days  
Heating Degree Days 6    
Growing Degree Days 9 (Base 50)    
Moisture  
Dew Point 46 °F    
Average Humidity 66    
Maximum Humidity 98    
Minimum Humidity 27    
Precipitation  
Precipitation 0.00 in - - ()
Sea Level Pressure  
Sea Level Pressure 30.04 in    
Wind  
Wind Speed 2 mph (ESE)    
Max Wind Speed 7 mph    
Max Gust Speed -    
Visibility 9 miles    
Events Fog    
Averages and records for this station are not official NWS values.
T = Trace of Precipitation, MM = Missing Value Source: NWS Daily Summary

Daily Weather History Graph

Daily Weather History Graph

Search for Another Location

Airport or City:

Trip Planner

Search our weather history database for the weather conditions in past years. The results will help you decide how hot, cold, wet, or windy it might be!

Date:

Astronomy

Oct. 02, 2013 Rise Set
Actual Time 6:53 AM CDT 6:33 PM CDT
Civil Twilight 6:25 AM CDT 7:02 PM CDT
Nautical Twilight 5:52 AM CDT 7:35 PM CDT
Astronomical Twilight 5:18 AM CDT 8:08 PM CDT
Moon 4:23 AM CDT (10/2) 5:11 PM CDT (10/2)
Length of Visible Light 12h 36m
Length of Day
11h 40m
Waning Crescent, 6% of the Moon is Illuminated
Oct 2
Waning Crescent
Oct 4
New
Oct 11
First Quarter
Oct 18
Full
Oct 26
Last Quarter

Hourly Weather History & Observations

Time (CDT) Temp. Dew Point Humidity Pressure Visibility Wind Dir Wind Speed Gust Speed Precip Events Conditions
12:15 AM 53.4 °F 51.6 °F 94% 29.97 in 10.0 mi Calm Calm - N/A   Clear
12:35 AM 53.6 °F 52.7 °F 97% 29.98 in 10.0 mi Calm Calm - N/A   Clear
12:55 AM 52.7 °F 51.8 °F 97% 29.98 in 5.0 mi Calm Calm - N/A   Clear
1:15 AM 52.2 °F 51.3 °F 97% 29.99 in 1.2 mi Calm Calm - N/A   Scattered Clouds
1:35 AM 51.6 °F 51.1 °F 98% 30.00 in 0.5 mi Calm Calm - N/A Fog Fog
1:55 AM 49.5 °F 48.7 °F 97% 30.00 in 0.5 mi Calm Calm - N/A Fog Fog
2:15 AM 48.2 °F 47.3 °F 97% 30.01 in 1.0 mi Calm Calm - N/A   Mostly Cloudy
2:35 AM 48.6 °F 47.3 °F 95% 30.01 in 10.0 mi Calm Calm - N/A   Clear
2:55 AM 47.5 °F 46.2 °F 95% 30.02 in 1.5 mi Calm Calm - N/A   Scattered Clouds
3:15 AM 47.8 °F 46.9 °F 97% 30.02 in 4.0 mi Calm Calm - N/A   Mostly Cloudy
3:35 AM 46.4 °F 45.0 °F 95% 30.02 in 10.0 mi Calm Calm - N/A   Scattered Clouds
3:55 AM 45.5 °F 44.8 °F 97% 30.03 in 0.5 mi Calm Calm - N/A Fog Fog
4:15 AM 46.2 °F 45.7 °F 98% 30.04 in 3.0 mi Calm Calm - N/A   Mostly Cloudy
4:35 AM 45.5 °F 44.4 °F 96% 30.05 in 10.0 mi Calm Calm - N/A   Scattered Clouds
4:55 AM 45.5 °F 44.1 °F 95% 30.05 in 1.0 mi Calm Calm - N/A   Overcast
5:15 AM 44.6 °F 43.2 °F 95% 30.06 in 10.0 mi Calm Calm - N/A   Scattered Clouds
6:35 AM 44.1 °F 42.4 °F 94% 30.08 in 10.0 mi Calm Calm - N/A   Clear
6:55 AM 44.6 °F 44.1 °F 98% 30.09 in 0.2 mi Calm Calm - N/A Fog Fog
7:15 AM 43.7 °F 42.1 °F 94% 30.09 in 10.0 mi Calm Calm - N/A   Clear
7:35 AM 45.5 °F 43.7 °F 93% 30.09 in 10.0 mi Calm Calm - N/A   Clear
7:55 AM 48.6 °F 47.5 °F 96% 30.09 in 10.0 mi Calm Calm - N/A   Clear
8:15 AM 51.1 °F 49.8 °F 95% 30.10 in 10.0 mi Calm Calm - N/A   Clear
8:53 AM 55.4 °F 51.8 °F 88% 30.11 in 10.0 mi Calm Calm - N/A   Clear
8:55 AM 55.8 °F 52.0 °F 87% 30.11 in 10.0 mi Calm Calm - N/A   Clear
9:15 AM 57.9 °F 51.6 °F 80% 30.12 in 10.0 mi Calm Calm - N/A   Clear
9:55 AM 62.8 °F 51.3 °F 66% 30.12 in 10.0 mi Calm Calm - N/A   Clear
10:15 AM 64.9 °F 48.4 °F 55% 30.12 in 10.0 mi ESE 3.5 mph - N/A   Clear
10:35 AM 66.9 °F 48.2 °F 51% 30.11 in 10.0 mi Calm Calm - N/A   Clear
10:55 AM 68.5 °F 45.3 °F 43% 30.12 in 10.0 mi SE 4.6 mph - N/A   Clear
11:15 AM 69.6 °F 44.4 °F 40% 30.11 in 10.0 mi ESE 5.8 mph - N/A   Clear
11:55 AM 71.2 °F 39.6 °F 32% 30.11 in 10.0 mi ESE 5.8 mph - N/A   Clear
12:15 PM 71.2 °F 37.6 °F 29% 30.10 in 10.0 mi East 5.8 mph - N/A   Clear
12:35 PM 72.3 °F 39.2 °F 30% 30.09 in 10.0 mi East 5.8 mph - N/A   Clear
12:55 PM 72.9 °F 39.9 °F 30% 30.09 in 10.0 mi Calm Calm - N/A   Clear
1:15 PM 72.7 °F 39.0 °F 29% 30.08 in 10.0 mi Calm Calm - N/A   Clear
2:11 PM 73.4 °F 39.2 °F 29% 30.06 in 10.0 mi East 4.6 mph - N/A   Clear
2:15 PM 74.1 °F 40.1 °F 29% 30.06 in 10.0 mi East 3.5 mph - N/A   Clear
2:35 PM 74.1 °F 41.4 °F 31% 30.05 in 10.0 mi ENE 3.5 mph - N/A   Clear
3:13 PM 75.2 °F 41.0 °F 29% 30.04 in 10.0 mi ESE 3.5 mph - N/A   Clear
3:31 PM 75.2 °F 39.2 °F 27% 30.03 in 10.0 mi East 4.6 mph - N/A   Clear
3:51 PM 75.2 °F 39.2 °F 27% 30.03 in 10.0 mi East 5.8 mph - N/A   Clear
4:15 PM 75.0 °F 41.7 °F 30% 30.02 in 10.0 mi East 3.5 mph - N/A   Clear
4:35 PM 74.5 °F 43.7 °F 33% 30.01 in 10.0 mi SE 5.8 mph - N/A   Clear
4:55 PM 73.9 °F 42.6 °F 32% 30.01 in 10.0 mi SSE 4.6 mph - N/A   Clear
5:15 PM 73.6 °F 42.8 °F 33% 30.01 in 10.0 mi ESE 4.6 mph - N/A   Clear
5:35 PM 72.7 °F 43.5 °F 35% 30.01 in 10.0 mi ESE 3.5 mph - N/A   Clear
5:55 PM 71.1 °F 47.3 °F 43% 30.01 in 10.0 mi ESE 3.5 mph - N/A   Clear
6:15 PM 69.1 °F 46.8 °F 45% 30.00 in 10.0 mi East 3.5 mph - N/A   Clear
6:35 PM 65.7 °F 45.7 °F 48% 30.01 in 10.0 mi ESE 5.8 mph - N/A   Clear
6:55 PM 63.1 °F 45.7 °F 53% 30.01 in 10.0 mi ESE 6.9 mph - N/A   Clear
7:15 PM 61.9 °F 46.0 °F 56% 30.01 in 10.0 mi East 5.8 mph - N/A   Clear
7:35 PM 60.6 °F 45.9 °F 58% 30.01 in 10.0 mi ESE 5.8 mph - N/A   Clear
7:55 PM 59.0 °F 45.7 °F 61% 30.01 in 10.0 mi East 5.8 mph - N/A   Clear
8:15 PM 58.1 °F 45.7 °F 63% 30.01 in 10.0 mi East 5.8 mph - N/A   Clear
8:35 PM 57.2 °F 45.9 °F 66% 30.01 in 10.0 mi East 5.8 mph - N/A   Clear
8:55 PM 57.6 °F 46.6 °F 67% 30.01 in 10.0 mi East 5.8 mph - N/A   Clear
9:15 PM 57.0 °F 47.3 °F 70% 30.01 in 10.0 mi ESE 5.8 mph - N/A   Clear
9:35 PM 56.1 °F 47.7 °F 73% 30.01 in 10.0 mi East 5.8 mph - N/A   Clear
9:55 PM 55.8 °F 48.2 °F 76% 30.00 in 10.0 mi East 5.8 mph - N/A   Clear
10:15 PM 56.3 °F 48.4 °F 75% 30.00 in 10.0 mi ESE 4.6 mph - N/A   Clear
10:35 PM 55.9 °F 48.2 °F 75% 30.00 in 10.0 mi East 4.6 mph - N/A   Clear
10:55 PM 55.9 °F 47.8 °F 74% 29.99 in 10.0 mi East 3.5 mph - N/A   Clear
11:15 PM 56.3 °F 47.3 °F 72% 30.00 in 10.0 mi ESE 3.5 mph - N/A   Clear
11:35 PM 55.9 °F 47.3 °F 73% 29.99 in 10.0 mi ESE 4.6 mph - N/A   Clear
11:55 PM 57.2 °F 44.8 °F 63% 29.99 in 10.0 mi ESE 5.8 mph - N/A   Clear